Tracking 17630 objects as of 24-May-2016
HD Live streaming from Space Station
objects crossing your sky now

OSCAR 36 (UOSAT 12)

Track OSCAR 36 (UOSAT 12) now!
10-day predictions
OSCAR 36 (UOSAT 12) is classified as:


NORAD ID: 25693
Int'l Code: 1999-021A
Perigee: 627.9 km
Apogee: 640.9 km
Inclination: 64.6 °
Period: 97.3 minutes
Semi major axis: 7005 km
RCS: 1.4285 m2 (large)
Launch date: April 21, 1999
Source: United Kingdom (UK)
Launch site: TYURATAM MISSILE AND SPACE COMPLEX (TTMTR)
Uplink (MHz): 145.960
Downlink (MHz): 437.400/437.025
Beacon (MHz): 437.400
Mode: 38400bps FSK
Call sign: UO121-11 -12
Status: Inactive


Used for email and communication services to remote areas.
Your satellite tracking list
Your tracking list is empty





NASA's NSSDC Master Catalog

Two Line Element Set (TLE):
1 25693U 99021A   16145.49943670 -.00000017  00000-0  16230-4 0  9990
2 25693  64.5566 243.5265 0009248 213.9642 146.0872 14.80651807922614
Source of the keplerian elements: AFSPC

N2YO: 571